,,PA_Meas_PMT16A,,PR_Meas_QMR101_102,,RH_Meas_QMH101,,SR_Meas_QMS101,,TA_Meas_QMH101,,GenWind,,GenWind,
time,status,PA,status,PR,status,RH,status,SR,status,TA,status,DirAvg,status,SpdAvg,
2011-02-27, 00:00:04,VALID,917.545,VALID,0,VALID,97.3205,VALID,0,VALID,19.5063,VALID,5,VALID,0.644531,
2011-02-27, 00:01:04,VALID,917.547,VALID,0.2,VALID,97.3205,VALID,0.107441,VALID,19.4868,VALID,5,VALID,0.598047,
2011-02-27, 00:02:04,VALID,917.542,VALID,0,VALID,97.3129,VALID,0,VALID,19.4673,VALID,5,VALID,0.350781,
2011-02-27, 00:03:04,VALID,917.543,VALID,0,VALID,97.3129,VALID,0,VALID,19.4868,VALID,5,VALID,0,
2011-02-27, 00:04:04,VALID,917.573,VALID,0,VALID,97.3205,VALID,0,VALID,19.5063,VALID,5,VALID,0,
2011-02-27, 00:05:04,VALID,917.579,VALID,0,VALID,97.3053,VALID,0,VALID,19.5258,VALID,5,VALID,0.138672,
2011-02-27, 00:06:04,VALID,917.563,VALID,0,VALID,97.3281,VALID,0,VALID,19.5258,VALID,5,VALID,0.113672,
2011-02-27, 00:07:04,VALID,917.579,VALID,0,VALID,97.3281,VALID,0,VALID,19.5453,VALID,5,VALID,0.276953,
2011-02-27, 00:08:04,VALID,917.596,VALID,0,VALID,97.3281,VALID,0,VALID,19.4868,VALID,5,VALID,0.388281,
2011-02-27, 00:09:04,VALID,917.575,VALID,0,VALID,97.3129,VALID,0,VALID,19.4478,VALID,5,VALID,0.515625,
2011-02-27, 00:10:04,VALID,917.555,VALID,0,VALID,97.3281,VALID,0,VALID,19.4673,VALID,5,VALID,0.882813,
2011-02-27, 00:11:04,VALID,917.524,VALID,0,VALID,97.3358,VALID,0.107441,VALID,19.4478,VALID,5,VALID,1.12109,
2011-02-27, 00:12:04,VALID,917.531,VALID,0,VALID,97.3358,VALID,0,VALID,19.4868,VALID,346,VALID,0.954687,
2011-02-27, 00:13:04,VALID,917.504,VALID,0,VALID,97.3358,VALID,0.107441,VALID,19.4868,VALID,346,VALID,0.846484,
2011-02-27, 00:14:04,VALID,917.466,VALID,0,VALID,97.3205,VALID,0,VALID,19.4478,VALID,346,VALID,1.10898,
2011-02-27, 00:15:04,VALID,917.477,VALID,0,VALID,97.351,VALID,0,VALID,19.4673,VALID,346,VALID,0.56875,
2011-02-27, 00:16:04,VALID,917.462,VALID,0,VALID,97.3358,VALID,0,VALID,19.4283,VALID,346,VALID,0.852734,
2011-02-27, 00:17:04,VALID,917.461,VALID,0,VALID,97.3358,VALID,0,VALID,19.4283,VALID,346,VALID,0.654297,
2011-02-27, 00:18:04,VALID,917.416,VALID,0,VALID,97.3358,VALID,0,VALID,19.3893,VALID,346,VALID,0.391016,
2011-02-27, 00:19:04,VALID,917.452,VALID,0,VALID,97.351,VALID,0,VALID,19.4088,VALID,346,VALID,0.228516,
2011-02-27, 00:20:04,VALID,917.452,VALID,0,VALID,97.351,VALID,0,VALID,19.4673,VALID,346,VALID,0.498437,
2011-02-27, 00:21:04,VALID,917.449,VALID,0,VALID,97.3358,VALID,0.107441,VALID,19.4478,VALID,346,VALID,0.703516,
2011-02-27, 00:22:04,VALID,917.469,VALID,0,VALID,97.351,VALID,0,VALID,19.4478,VALID,346,VALID,0.290234,
2011-02-27, 00:23:04,VALID,917.464,VALID,0,VALID,97.351,VALID,0,VALID,19.4673,VALID,346,VALID,0,
2011-02-27, 00:24:04,VALID,917.439,VALID,0,VALID,97.3434,VALID,0,VALID,19.4673,VALID,346,VALID,0.621484,
2011-02-27, 00:25:04,VALID,917.452,VALID,0.2,VALID,97.3586,VALID,0.107441,VALID,19.4478,VALID,346,VALID,0.685938,
2011-02-27, 00:26:04,VALID,917.4,VALID,0,VALID,97.3434,VALID,0,VALID,19.4283,VALID,346,VALID,0.882031,
2011-02-27, 00:27:04,VALID,917.371,VALID,0,VALID,97.3663,VALID,0.107441,VALID,19.4298,VALID,346,VALID,0.891406,
2011-02-27, 00:28:04,VALID,917.372,VALID,0,VALID,97.351,VALID,0,VALID,19.4103,VALID,346,VALID,0.895312,
2011-02-27, 00:29:04,VALID,917.334,VALID,0,VALID,97.3663,VALID,0,VALID,19.4074,VALID,8,VALID,0.730469,
2011-02-27, 00:30:04,VALID,917.358,VALID,0,VALID,97.3663,VALID,0.107441,VALID,19.4283,VALID,8,VALID,0.691406,
2011-02-27, 00:31:04,VALID,917.332,VALID,0,VALID,97.3434,VALID,0,VALID,19.4088,VALID,7,VALID,0.837109,
2011-02-27, 00:32:04,VALID,917.301,VALID,0,VALID,97.351,VALID,0,VALID,19.3698,VALID,7,VALID,0.832422,
2011-02-27, 00:33:04,VALID,917.285,VALID,0,VALID,97.3586,VALID,0,VALID,19.4088,VALID,8,VALID,0.651563,
2011-02-27, 00:34:04,VALID,917.271,VALID,0,VALID,97.3586,VALID,0,VALID,19.4088,VALID,7,VALID,0.514453,
2011-02-27, 00:35:04,VALID,917.252,VALID,0,VALID,97.3663,VALID,0,VALID,19.3893,VALID,8,VALID,0.825391,
2011-02-27, 00:36:04,VALID,917.227,VALID,0,VALID,97.3891,VALID,0,VALID,19.4283,VALID,8,VALID,0.714063,
2011-02-27, 00:37:04,VALID,917.229,VALID,0,VALID,97.3739,VALID,0.107441,VALID,19.3893,VALID,7,VALID,0.756641,
2011-02-27, 00:38:04,VALID,917.193,VALID,0,VALID,97.3739,VALID,0.107441,VALID,19.3698,VALID,8,VALID,0.884766,
2011-02-27, 00:39:04,VALID,917.212,VALID,0,VALID,97.3739,VALID,0,VALID,19.3503,VALID,8,VALID,0.813672,
2011-02-27, 00:40:04,VALID,917.181,VALID,0,VALID,97.3663,VALID,0.107441,VALID,19.3308,VALID,8,VALID,1.06172,
2011-02-27, 00:41:04,VALID,917.176,VALID,0,VALID,97.3891,VALID,0.107441,VALID,19.3113,VALID,7,VALID,1.11836,
2011-02-27, 00:42:04,VALID,917.165,VALID,0,VALID,97.3586,VALID,0,VALID,19.3503,VALID,7,VALID,1.20508,
2011-02-27, 00:43:04,VALID,917.14,VALID,0,VALID,97.3815,VALID,0,VALID,19.3308,VALID,7,VALID,1.03047,
2011-02-27, 00:44:04,VALID,917.167,VALID,0,VALID,97.3891,VALID,0.107441,VALID,19.3503,VALID,7,VALID,1.03672,
2011-02-27, 00:45:04,VALID,917.121,VALID,0.2,VALID,97.3968,VALID,0.107441,VALID,19.3308,VALID,7,VALID,0.840234,
2011-02-27, 00:46:04,VALID,917.1,VALID,0,VALID,97.3891,VALID,0,VALID,19.3503,VALID,7,VALID,0.626172,
2011-02-27, 00:47:04,VALID,917.082,VALID,0.2,VALID,97.3891,VALID,0,VALID,19.3503,VALID,7,VALID,0.654297,
2011-02-27, 00:48:04,VALID,917.034,VALID,0,VALID,97.3968,VALID,0,VALID,19.3713,VALID,6,VALID,0.513281,
2011-02-27, 00:49:04,VALID,917.018,VALID,0,VALID,97.412,VALID,0,VALID,19.4103,VALID,6,VALID,0.751562,
2011-02-27, 00:50:04,VALID,917.009,VALID,0,VALID,97.3968,VALID,0,VALID,19.4103,VALID,6,VALID,0.803516,
2011-02-27, 00:51:04,VALID,917,VALID,0.2,VALID,97.3739,VALID,0,VALID,19.3908,VALID,6,VALID,0.417578,
2011-02-27, 00:52:04,VALID,917.004,VALID,0,VALID,97.3968,VALID,0,VALID,19.3908,VALID,6,VALID,0.744141,
2011-02-27, 00:53:04,VALID,916.984,VALID,0,VALID,97.3968,VALID,0,VALID,19.4103,VALID,6,VALID,0.927344,
2011-02-27, 00:54:04,VALID,917,VALID,0,VALID,97.4044,VALID,0,VALID,19.4298,VALID,6,VALID,0.733984,
2011-02-27, 00:55:04,VALID,916.99,VALID,0,VALID,97.412,VALID,0,VALID,19.4688,VALID,6,VALID,0.335156,
2011-02-27, 00:56:04,VALID,916.986,VALID,0.2,VALID,97.412,VALID,0,VALID,19.4898,VALID,6,VALID,0.402344,
2011-02-27, 00:57:04,VALID,917.033,VALID,0,VALID,97.4044,VALID,0,VALID,19.4688,VALID,6,VALID,0.579297,
2011-02-27, 00:58:04,VALID,917.03,VALID,0,VALID,97.4044,VALID,0,VALID,19.4703,VALID,6,VALID,0.524219,
2011-02-27, 00:59:04,VALID,916.998,VALID,0.2,VALID,97.3739,VALID,0,VALID,19.4703,VALID,6,VALID,0.0316406,
2011-02-27, 01:00:04,VALID,916.988,VALID,0,VALID,97.3891,VALID,0,VALID,19.4688,VALID,6,VALID,0,
2011-02-27, 01:01:04,VALID,916.996,VALID,0.4,VALID,97.412,VALID,0,VALID,19.4898,VALID,6,VALID,0.559766,
2011-02-27, 01:02:04,VALID,917.012,VALID,0.4,VALID,97.3968,VALID,0,VALID,19.4703,VALID,6,VALID,0.855078,
2011-02-27, 01:03:04,VALID,916.969,VALID,0.4,VALID,97.4196,VALID,0,VALID,19.4883,VALID,6,VALID,1.05156,
2011-02-27, 01:04:04,VALID,916.972,VALID,0.4,VALID,97.4044,VALID,0,VALID,19.4673,VALID,6,VALID,1.36758,
2011-02-27, 01:05:04,VALID,916.98,VALID,0.4,VALID,97.4044,VALID,0,VALID,19.4478,VALID,6,VALID,0.915625,
2011-02-27, 01:06:04,VALID,916.931,VALID,0.2,VALID,97.3968,VALID,0,VALID,19.4673,VALID,6,VALID,0.645312,
2011-02-27, 01:07:04,VALID,916.922,VALID,0.2,VALID,97.4044,VALID,0,VALID,19.4478,VALID,348,VALID,0.987109,
2011-02-27, 01:08:04,VALID,916.905,VALID,0.2,VALID,97.4196,VALID,0,VALID,19.4283,VALID,321,VALID,0.766797,
2011-02-27, 01:09:04,VALID,916.879,VALID,0.2,VALID,97.3968,VALID,0,VALID,19.4283,VALID,321,VALID,0.680078,
2011-02-27, 01:10:04,VALID,916.877,VALID,0,VALID,97.4044,VALID,0,VALID,19.3893,VALID,321,VALID,0.281641,
2011-02-27, 01:11:04,VALID,916.91,VALID,0.2,VALID,97.3891,VALID,0,VALID,19.3893,VALID,321,VALID,0.446875,
2011-02-27, 01:12:04,VALID,916.887,VALID,0,VALID,97.4044,VALID,0,VALID,19.3893,VALID,321,VALID,0.404687,
2011-02-27, 01:13:04,VALID,916.903,VALID,0,VALID,97.412,VALID,0,VALID,19.3893,VALID,321,VALID,0.467187,
2011-02-27, 01:14:04,VALID,916.889,VALID,0.2,VALID,97.4196,VALID,0,VALID,19.3893,VALID,321,VALID,0.2625,
2011-02-27, 01:15:04,VALID,916.888,VALID,0.2,VALID,97.4196,VALID,0,VALID,19.4493,VALID,321,VALID,0.130859,
2011-02-27, 01:16:04,VALID,916.831,VALID,0.2,VALID,97.4196,VALID,0,VALID,19.4283,VALID,321,VALID,0.392578,
2011-02-27, 01:17:04,VALID,916.821,VALID,0.4,VALID,97.4273,VALID,0,VALID,19.4283,VALID,321,VALID,0.560547,
2011-02-27, 01:18:04,VALID,916.781,VALID,0.2,VALID,97.4273,VALID,0,VALID,19.4283,VALID,321,VALID,0.790625,
2011-02-27, 01:19:04,VALID,916.78,VALID,0.2,VALID,97.4196,VALID,0.107441,VALID,19.4478,VALID,321,VALID,0.790625,
2011-02-27, 01:20:04,VALID,916.785,VALID,0.2,VALID,97.4196,VALID,0.107441,VALID,19.4478,VALID,321,VALID,0.479297,
2011-02-27, 01:21:04,VALID,916.775,VALID,0,VALID,97.412,VALID,0,VALID,19.4283,VALID,321,VALID,0.501562,
2011-02-27, 01:22:04,VALID,916.754,VALID,0.2,VALID,97.3968,VALID,0,VALID,19.4283,VALID,321,VALID,0.331641,
2011-02-27, 01:23:04,VALID,916.733,VALID,0.2,VALID,97.412,VALID,0,VALID,19.4103,VALID,321,VALID,0.519141,
2011-02-27, 01:24:04,VALID,916.727,VALID,0,VALID,97.412,VALID,0,VALID,19.4088,VALID,321,VALID,0.490234,
2011-02-27, 01:25:04,VALID,916.718,VALID,0.2,VALID,97.412,VALID,0.107441,VALID,19.3908,VALID,321,VALID,0.428125,
2011-02-27, 01:26:04,VALID,916.668,VALID,0,VALID,97.4196,VALID,0,VALID,19.3908,VALID,321,VALID,0.319141,
2011-02-27, 01:27:04,VALID,916.681,VALID,0.2,VALID,97.4349,VALID,0,VALID,19.4103,VALID,321,VALID,0.795703,
2011-02-27, 01:28:04,VALID,916.619,VALID,0,VALID,97.4501,VALID,0,VALID,19.4088,VALID,321,VALID,0.573438,
2011-02-27, 01:29:04,VALID,916.643,VALID,0,VALID,97.412,VALID,0,VALID,19.3698,VALID,325,VALID,0.748438,
2011-02-27, 01:30:04,VALID,916.609,VALID,0.2,VALID,97.4425,VALID,0,VALID,19.3503,VALID,4,VALID,0.950781,
2011-02-27, 01:31:04,VALID,916.619,VALID,0.2,VALID,97.4273,VALID,0,VALID,19.3308,VALID,332,VALID,0.808203,
2011-02-27, 01:32:04,VALID,916.618,VALID,0,VALID,97.4273,VALID,0,VALID,19.3113,VALID,4,VALID,0.610547,
2011-02-27, 01:33:04,VALID,916.617,VALID,0,VALID,97.4273,VALID,0,VALID,19.3518,VALID,4,VALID,0.551562,
2011-02-27, 01:34:04,VALID,916.584,VALID,0.2,VALID,97.4273,VALID,0,VALID,19.3518,VALID,4,VALID,0.564062,
2011-02-27, 01:35:04,VALID,916.564,VALID,0,VALID,97.4349,VALID,0,VALID,19.3713,VALID,4,VALID,0.738281,
2011-02-27, 01:36:04,VALID,916.585,VALID,0.2,VALID,97.4273,VALID,0,VALID,19.3698,VALID,4,VALID,0.932031,
2011-02-27, 01:37:04,VALID,916.603,VALID,0,VALID,97.4196,VALID,0,VALID,19.3518,VALID,3,VALID,1.14766,
2011-02-27, 01:38:04,VALID,916.625,VALID,0,VALID,97.4196,VALID,0,VALID,19.3113,VALID,3,VALID,0.170312,
2011-02-27, 01:39:04,VALID,916.612,VALID,0,VALID,97.4425,VALID,0,VALID,19.3518,VALID,3,VALID,0.214453,
2011-02-27, 01:40:04,VALID,916.635,VALID,0,VALID,97.4501,VALID,0,VALID,19.3503,VALID,3,VALID,0.144922,
2011-02-27, 01:41:04,VALID,916.615,VALID,0.2,VALID,97.4349,VALID,0,VALID,19.3518,VALID,3,VALID,0.198828,
2011-02-27, 01:42:04,VALID,916.574,VALID,0,VALID,97.4425,VALID,0,VALID,19.3713,VALID,3,VALID,0.239844,
2011-02-27, 01:43:04,VALID,916.617,VALID,0,VALID,97.4273,VALID,0,VALID,19.4103,VALID,3,VALID,0.274219,
2011-02-27, 01:44:04,VALID,916.63,VALID,0,VALID,97.4501,VALID,0,VALID,19.4298,VALID,3,VALID,0,
2011-02-27, 01:45:04,VALID,916.632,VALID,0.2,VALID,97.4577,VALID,0,VALID,19.4283,VALID,3,VALID,0,
2011-02-27, 01:46:04,VALID,916.635,VALID,0,VALID,97.4425,VALID,0,VALID,19.4493,VALID,3,VALID,0.159375,
2011-02-27, 01:47:04,VALID,916.655,VALID,0,VALID,97.4501,VALID,0,VALID,19.4088,VALID,3,VALID,0,
2011-02-27, 01:48:04,VALID,916.621,VALID,0.2,VALID,97.4196,VALID,0,VALID,19.4298,VALID,3,VALID,0.424219,
2011-02-27, 01:49:04,VALID,916.599,VALID,0,VALID,97.4349,VALID,0,VALID,19.3893,VALID,3,VALID,0.166016,
2011-02-27, 01:50:04,VALID,916.603,VALID,0,VALID,97.4349,VALID,0,VALID,19.4103,VALID,3,VALID,0.402344,
2011-02-27, 01:51:04,VALID,916.59,VALID,0.2,VALID,97.4425,VALID,0,VALID,19.3908,VALID,3,VALID,0.65,
2011-02-27, 01:52:04,VALID,916.601,VALID,0,VALID,97.4425,VALID,0,VALID,19.3713,VALID,3,VALID,0.715625,
2011-02-27, 01:53:04,VALID,916.618,VALID,0.2,VALID,97.4501,VALID,0.107441,VALID,19.3113,VALID,3,VALID,0.941406,
2011-02-27, 01:54:04,VALID,916.565,VALID,0,VALID,97.4501,VALID,0,VALID,19.3128,VALID,3,VALID,0.864844,
2011-02-27, 01:55:04,VALID,916.57,VALID,0,VALID,97.4349,VALID,0,VALID,19.3128,VALID,3,VALID,0.780078,
2011-02-27, 01:56:04,VALID,916.559,VALID,0.2,VALID,97.4501,VALID,0.107441,VALID,19.2918,VALID,344,VALID,0.914453,
2011-02-27, 01:57:04,VALID,916.528,VALID,0,VALID,97.4425,VALID,0,VALID,19.3128,VALID,344,VALID,0.623047,
2011-02-27, 01:58:04,VALID,916.53,VALID,0,VALID,97.4425,VALID,0,VALID,19.3113,VALID,344,VALID,0.588672,
2011-02-27, 01:59:04,VALID,916.49,VALID,0.2,VALID,97.4425,VALID,0,VALID,19.3323,VALID,344,VALID,0.677344,
2011-02-27, 02:00:04,VALID,916.501,VALID,0,VALID,97.4425,VALID,0,VALID,19.3308,VALID,344,VALID,0.9,
2011-02-27, 02:01:04,VALID,916.48,VALID,0,VALID,97.4577,VALID,0,VALID,19.3713,VALID,344,VALID,0.4375,
2011-02-27, 02:02:04,VALID,916.458,VALID,0.2,VALID,97.4577,VALID,0.107441,VALID,19.3713,VALID,344,VALID,0.420312,
2011-02-27, 02:03:04,VALID,916.455,VALID,0,VALID,97.4425,VALID,0,VALID,19.3518,VALID,344,VALID,0.892187,
2011-02-27, 02:04:04,VALID,916.441,VALID,0,VALID,97.4425,VALID,0,VALID,19.3128,VALID,344,VALID,0.544531,
2011-02-27, 02:05:04,VALID,916.424,VALID,0.2,VALID,97.4577,VALID,0,VALID,19.2334,VALID,344,VALID,0.860156,
2011-02-27, 02:06:04,VALID,916.39,VALID,0,VALID,97.4273,VALID,0,VALID,19.2738,VALID,344,VALID,0.455078,
2011-02-27, 02:07:04,VALID,916.391,VALID,0,VALID,97.4654,VALID,0,VALID,19.2933,VALID,35,VALID,1.41836,
2011-02-27, 02:08:04,VALID,916.366,VALID,0.2,VALID,97.473,VALID,0,VALID,19.2543,VALID,38,VALID,0.770703,
2011-02-27, 02:09:04,VALID,916.372,VALID,0,VALID,97.4577,VALID,0,VALID,19.2738,VALID,37,VALID,0.630469,
2011-02-27, 02:10:04,VALID,916.359,VALID,0.2,VALID,97.4654,VALID,0,VALID,19.2738,VALID,38,VALID,0.402344,
2011-02-27, 02:11:04,VALID,916.365,VALID,0,VALID,97.4425,VALID,0.107441,VALID,19.2348,VALID,37,VALID,0.567578,
2011-02-27, 02:12:04,VALID,916.348,VALID,0,VALID,97.4654,VALID,0,VALID,19.2153,VALID,37,VALID,0.641016,
2011-02-27, 02:13:04,VALID,916.367,VALID,0.2,VALID,97.4577,VALID,0,VALID,19.1944,VALID,38,VALID,0.372656,
2011-02-27, 02:14:04,VALID,916.323,VALID,0,VALID,97.473,VALID,0,VALID,19.2153,VALID,38,VALID,0.304297,
2011-02-27, 02:15:04,VALID,916.33,VALID,0.2,VALID,97.473,VALID,0,VALID,19.2348,VALID,37,VALID,0.518359,
2011-02-27, 02:16:04,VALID,916.304,VALID,0,VALID,97.4425,VALID,0,VALID,19.2348,VALID,338,VALID,0.753906,
2011-02-27, 02:17:04,VALID,916.305,VALID,0,VALID,97.4577,VALID,0,VALID,19.1749,VALID,338,VALID,0.524609,
2011-02-27, 02:18:04,VALID,916.271,VALID,0,VALID,97.473,VALID,0.107441,VALID,19.1958,VALID,338,VALID,0.43125,
2011-02-27, 02:19:04,VALID,916.277,VALID,0.2,VALID,97.4654,VALID,0.107441,VALID,19.2543,VALID,338,VALID,0,
2011-02-27, 02:20:04,VALID,916.243,VALID,0,VALID,97.4806,VALID,0,VALID,19.2738,VALID,338,VALID,0,
2011-02-27, 02:21:04,VALID,916.223,VALID,0,VALID,97.473,VALID,0,VALID,19.2723,VALID,338,VALID,0.571484,
2011-02-27, 02:22:04,VALID,916.221,VALID,0,VALID,97.4577,VALID,0,VALID,19.3128,VALID,338,VALID,0.390625,
2011-02-27, 02:23:04,VALID,916.232,VALID,0,VALID,97.473,VALID,0,VALID,19.3323,VALID,338,VALID,0.367969,
2011-02-27, 02:24:04,VALID,916.193,VALID,0,VALID,97.4882,VALID,0,VALID,19.3713,VALID,338,VALID,0.528516,
2011-02-27, 02:25:04,VALID,916.15,VALID,0.2,VALID,97.4654,VALID,0.107441,VALID,19.3503,VALID,338,VALID,0.849609,
2011-02-27, 02:26:04,VALID,916.16,VALID,0,VALID,97.4882,VALID,0.107441,VALID,19.3908,VALID,338,VALID,0.722656,
2011-02-27, 02:27:04,VALID,916.171,VALID,0,VALID,97.4959,VALID,0,VALID,19.3698,VALID,338,VALID,0.744141,
2011-02-27, 02:28:04,VALID,916.12,VALID,0,VALID,97.4501,VALID,0,VALID,19.3713,VALID,338,VALID,0.416406,
2011-02-27, 02:29:04,VALID,916.12,VALID,0,VALID,97.4806,VALID,0.107441,VALID,19.3698,VALID,338,VALID,0.232031,
2011-02-27, 02:30:04,VALID,916.11,VALID,0,VALID,97.473,VALID,0,VALID,19.4103,VALID,338,VALID,0,
2011-02-27, 02:31:04,VALID,916.092,VALID,0,VALID,97.4882,VALID,0.107441,VALID,19.4103,VALID,338,VALID,0.114453,
2011-02-27, 02:32:04,VALID,916.065,VALID,0,VALID,97.4654,VALID,0,VALID,19.3698,VALID,338,VALID,0.592578,
2011-02-27, 02:33:04,VALID,916.034,VALID,0,VALID,97.4577,VALID,0.107441,VALID,19.3698,VALID,338,VALID,0.671484,
2011-02-27, 02:34:04,VALID,916.036,VALID,0,VALID,97.473,VALID,0,VALID,19.3503,VALID,338,VALID,0.657812,
2011-02-27, 02:35:04,VALID,916.002,VALID,0,VALID,97.473,VALID,0.107441,VALID,19.3503,VALID,358,VALID,0.821484,
2011-02-27, 02:36:04,VALID,915.959,VALID,0.2,VALID,97.473,VALID,0,VALID,19.3713,VALID,25,VALID,1.01445,
2011-02-27, 02:37:04,VALID,915.969,VALID,0,VALID,97.4654,VALID,0.107441,VALID,19.3503,VALID,25,VALID,0.935547,
2011-02-27, 02:38:04,VALID,915.939,VALID,0,VALID,97.4882,VALID,0.107441,VALID,19.3489,VALID,25,VALID,0.955078,
2011-02-27, 02:39:04,VALID,915.907,VALID,0,VALID,97.4806,VALID,0,VALID,19.3893,VALID,25,VALID,0.797656,
2011-02-27, 02:40:04,VALID,915.9,VALID,0,VALID,97.473,VALID,0,VALID,19.4298,VALID,25,VALID,0.478516,
2011-02-27, 02:41:04,VALID,915.87,VALID,0,VALID,97.4654,VALID,0,VALID,19.4478,VALID,25,VALID,0.537109,
2011-02-27, 02:42:04,VALID,915.871,VALID,0,VALID,97.4501,VALID,0,VALID,19.5078,VALID,25,VALID,0.331641,
2011-02-27, 02:43:04,VALID,915.871,VALID,0,VALID,97.473,VALID,0.107441,VALID,19.4868,VALID,25,VALID,0.216016,
2011-02-27, 02:44:04,VALID,915.859,VALID,0,VALID,97.4806,VALID,0.107441,VALID,19.4883,VALID,25,VALID,0.246875,
2011-02-27, 02:45:04,VALID,915.86,VALID,0,VALID,97.4882,VALID,0.107441,VALID,19.4673,VALID,25,VALID,0.273047,
2011-02-27, 02:46:04,VALID,915.83,VALID,0,VALID,97.473,VALID,0,VALID,19.4883,VALID,25,VALID,0,
2011-02-27, 02:47:04,VALID,915.821,VALID,0,VALID,97.4806,VALID,0.107441,VALID,19.4688,VALID,25,VALID,0.0796875,
2011-02-27, 02:48:04,VALID,915.795,VALID,0,VALID,97.473,VALID,0,VALID,19.4298,VALID,25,VALID,0.149609,
2011-02-27, 02:49:04,VALID,915.761,VALID,0,VALID,97.4806,VALID,0,VALID,19.4298,VALID,25,VALID,0,
2011-02-27, 02:50:04,VALID,915.742,VALID,0,VALID,97.4806,VALID,0,VALID,19.4508,VALID,25,VALID,0.387891,
2011-02-27, 02:51:04,VALID,915.728,VALID,0,VALID,97.4654,VALID,0,VALID,19.4118,VALID,25,VALID,0.46875,
2011-02-27, 02:52:04,VALID,915.734,VALID,0.2,VALID,97.4577,VALID,0,VALID,19.3518,VALID,25,VALID,0.723047,
2011-02-27, 02:53:04,VALID,915.717,VALID,0,VALID,97.473,VALID,0,VALID,19.3923,VALID,25,VALID,0.582422,
2011-02-27, 02:54:04,VALID,915.686,VALID,0,VALID,97.4806,VALID,0,VALID,19.3923,VALID,25,VALID,0.046875,
2011-02-27, 02:55:04,VALID,915.655,VALID,0,VALID,97.4577,VALID,0,VALID,19.4118,VALID,25,VALID,0.444141,
2011-02-27, 02:56:04,VALID,915.648,VALID,0,VALID,97.4806,VALID,0,VALID,19.3908,VALID,25,VALID,0.252734,
2011-02-27, 02:57:04,VALID,915.638,VALID,0,VALID,97.4882,VALID,0,VALID,19.4103,VALID,25,VALID,0.173828,
2011-02-27, 02:58:04,VALID,915.625,VALID,0,VALID,97.5035,VALID,0,VALID,19.4103,VALID,25,VALID,0.230859,
2011-02-27, 02:59:04,VALID,915.65,VALID,0,VALID,97.4959,VALID,0,VALID,19.4313,VALID,25,VALID,0.195313,
2011-02-27, 03:00:04,VALID,915.601,VALID,0,VALID,97.4882,VALID,0,VALID,19.4103,VALID,25,VALID,0.0335938,
2011-02-27, 03:01:04,VALID,915.615,VALID,0,VALID,97.4806,VALID,0,VALID,19.4103,VALID,25,VALID,0.0660156,
2011-02-27, 03:02:04,VALID,915.629,VALID,0,VALID,97.4806,VALID,0,VALID,19.4313,VALID,25,VALID,0,
2011-02-27, 03:03:04,VALID,915.612,VALID,0,VALID,97.4806,VALID,0,VALID,19.4313,VALID,25,VALID,0.336328,
2011-02-27, 03:04:04,VALID,915.592,VALID,0,VALID,97.4654,VALID,0,VALID,19.4313,VALID,25,VALID,0.323438,
2011-02-27, 03:05:04,VALID,915.576,VALID,0,VALID,97.5035,VALID,0,VALID,19.4298,VALID,25,VALID,0.20625,
2011-02-27, 03:06:04,VALID,915.568,VALID,0,VALID,97.5035,VALID,0,VALID,19.4493,VALID,25,VALID,0.380469,
2011-02-27, 03:07:04,VALID,915.556,VALID,0,VALID,97.473,VALID,0,VALID,19.4688,VALID,25,VALID,0.393359,
2011-02-27, 03:08:04,VALID,915.53,VALID,0,VALID,97.4959,VALID,0,VALID,19.4898,VALID,25,VALID,0,
2011-02-27, 03:09:04,VALID,915.539,VALID,0,VALID,97.4806,VALID,0,VALID,19.4913,VALID,25,VALID,0.0175781,
2011-02-27, 03:10:04,VALID,915.529,VALID,0,VALID,97.4806,VALID,0,VALID,19.4493,VALID,25,VALID,0.677344,
2011-02-27, 03:11:04,VALID,915.504,VALID,0,VALID,97.473,VALID,0,VALID,19.4523,VALID,25,VALID,0.667969,
2011-02-27, 03:12:04,VALID,915.487,VALID,0,VALID,97.4806,VALID,0,VALID,19.4508,VALID,25,VALID,0.359766,
2011-02-27, 03:13:04,VALID,915.519,VALID,0,VALID,97.4882,VALID,0,VALID,19.4703,VALID,25,VALID,0.64375,
2011-02-27, 03:14:04,VALID,915.469,VALID,0,VALID,97.4882,VALID,0,VALID,19.4493,VALID,25,VALID,0.491406,
2011-02-27, 03:15:04,VALID,915.475,VALID,0,VALID,97.4654,VALID,0,VALID,19.4898,VALID,24,VALID,0.725781,
2011-02-27, 03:16:04,VALID,915.458,VALID,0,VALID,97.4959,VALID,0,VALID,19.4703,VALID,24,VALID,0.69375,
2011-02-27, 03:17:04,VALID,915.436,VALID,0,VALID,97.4806,VALID,0,VALID,19.4883,VALID,24,VALID,0.380859,
2011-02-27, 03:18:04,VALID,915.403,VALID,0.2,VALID,97.4654,VALID,0,VALID,19.4478,VALID,23,VALID,0.791016,
2011-02-27, 03:19:04,VALID,915.383,VALID,0,VALID,97.473,VALID,0,VALID,19.4688,VALID,21,VALID,0.807422,
2011-02-27, 03:20:04,VALID,915.366,VALID,0,VALID,97.4806,VALID,0,VALID,19.4283,VALID,21,VALID,0.548828,
2011-02-27, 03:21:04,VALID,915.347,VALID,0,VALID,97.4882,VALID,0,VALID,19.4883,VALID,21,VALID,0.746875,
2011-02-27, 03:22:04,VALID,915.363,VALID,0,VALID,97.473,VALID,0,VALID,19.4673,VALID,21,VALID,0.815625,
2011-02-27, 03:23:04,VALID,915.361,VALID,0,VALID,97.5035,VALID,0,VALID,19.4673,VALID,21,VALID,0.646484,
2011-02-27, 03:24:04,VALID,915.347,VALID,0,VALID,97.473,VALID,0,VALID,19.4283,VALID,20,VALID,1.30938,
2011-02-27, 03:25:04,VALID,915.323,VALID,0,VALID,97.4654,VALID,0,VALID,19.4493,VALID,20,VALID,0.806641,
2011-02-27, 03:26:04,VALID,915.338,VALID,0,VALID,97.4806,VALID,0,VALID,19.4298,VALID,8,VALID,0.522266,
2011-02-27, 03:27:04,VALID,915.349,VALID,0,VALID,97.4882,VALID,0,VALID,19.3698,VALID,8,VALID,0.719141,
2011-02-27, 03:28:04,VALID,915.334,VALID,0,VALID,97.5035,VALID,0,VALID,19.4298,VALID,8,VALID,0.171875,
2011-02-27, 03:29:04,VALID,915.294,VALID,0,VALID,97.4882,VALID,0,VALID,19.4298,VALID,8,VALID,0.00195313,
2011-02-27, 03:30:04,VALID,915.318,VALID,0,VALID,97.4882,VALID,0,VALID,19.4088,VALID,8,VALID,0.701953,
2011-02-27, 03:31:04,VALID,915.32,VALID,0,VALID,97.5111,VALID,0,VALID,19.4298,VALID,8,VALID,0.795703,
2011-02-27, 03:32:04,VALID,915.328,VALID,0,VALID,97.4959,VALID,0,VALID,19.4103,VALID,8,VALID,0.00820312,
2011-02-27, 03:33:04,VALID,915.263,VALID,0,VALID,97.5035,VALID,0,VALID,19.3684,VALID,8,VALID,0.711328,
2011-02-27, 03:34:04,VALID,915.284,VALID,0,VALID,97.5111,VALID,0,VALID,19.3908,VALID,8,VALID,0.309766,
2011-02-27, 03:35:04,VALID,915.264,VALID,0,VALID,97.5187,VALID,0,VALID,19.4298,VALID,8,VALID,0.543359,
2011-02-27, 03:36:04,VALID,915.261,VALID,0,VALID,97.4806,VALID,0,VALID,19.3908,VALID,8,VALID,1.03242,
2011-02-27, 03:37:04,VALID,915.251,VALID,0,VALID,97.4959,VALID,0,VALID,19.3893,VALID,8,VALID,1.1582,
2011-02-27, 03:38:04,VALID,915.248,VALID,0,VALID,97.5111,VALID,0,VALID,19.3893,VALID,8,VALID,0.948828,
2011-02-27, 03:39:04,VALID,915.23,VALID,0,VALID,97.4959,VALID,0,VALID,19.4103,VALID,8,VALID,0.795313,
2011-02-27, 03:40:04,VALID,915.25,VALID,0,VALID,97.4882,VALID,0,VALID,19.3698,VALID,8,VALID,0.389453,
2011-02-27, 03:41:04,VALID,915.233,VALID,0,VALID,97.4806,VALID,0,VALID,19.3518,VALID,358,VALID,0.964844,
2011-02-27, 03:42:04,VALID,915.242,VALID,0,VALID,97.4882,VALID,0,VALID,19.3518,VALID,358,VALID,0.726563,
2011-02-27, 03:43:04,VALID,915.22,VALID,0,VALID,97.4959,VALID,0,VALID,19.3518,VALID,358,VALID,0.292969,
2011-02-27, 03:44:04,VALID,915.203,VALID,0,VALID,97.4806,VALID,0,VALID,19.3713,VALID,38,VALID,0.932031,